Location: *
(46.1333°N, 6.0833°E)
Time: 12:07:30
(UTC+00:00)

Daily predictions for brighter satellites

Satellite Brightness Start Highest point End
(mag) Time Altitude Azimuth Time Altitude Azimuth Time Altitude Azimuth
COSMOS 2428 3.1 16:15:12 10° SW 16:20:51 69° WNW 16:26:34 10° NNE
Genesis I 4.0 16:17:57 10° NNW 16:21:26 30° NE 16:24:51 10° ESE
Cosmos 2279 Rocket 4.2 16:16:18 10° N 16:22:36 83° W 16:28:51 10° S
Cosmos 2251 Rocket 3.6 16:18:55 10° S 16:24:10 66° ESE 16:29:25 10° NNE
Cosmos 1908 Rocket 4.4 16:21:01 10° NNE 16:24:51 28° ENE 16:28:38 10° SE
Okean-O 3.7 16:23:19 10° ESE 16:26:53 24° ENE 16:30:28 10° N
Meteor 1-5 Rocket 4.1 16:22:06 10° N 16:27:39 83° E 16:32:59 10° SSE
CZ-4B R/B 2.9 16:24:34 10° N 16:27:52 38° WNW 16:31:05 10° SW
Cosmos 1666 3.6 16:25:09 10° NNE 16:28:20 26° ENE 16:31:30 10° SE
RESURS DK-1 3.1 16:24:34 10° SW 16:28:36 52° WNW 16:32:39 10° NNE
Envisat 3.9 16:25:30 10° ESE 16:29:44 27° ENE 16:33:59 10° N
COSMO-SKYMED 1 4.4 16:29:47 10° ENE 16:31:57 13° E 16:34:06 10° ESE
USA 267 3.3 16:25:42 10° ESE 16:32:12 71° NNE 16:38:43 10° NW
Okean 1-7 4.4 16:29:26 10° SE 16:32:34 20° E 16:35:42 10° NE
CZ-4B R/B 3.7 16:28:37 10° S 16:33:54 65° WSW 16:39:20 10° NNW
YAOGAN 1 4.2 16:36:07 10° E 16:38:11 13° ENE 16:40:14 10° NNE
Feng Yun 1-1 Rocket 4.2 16:34:06 10° SSE 16:39:22 60° ENE 16:44:43 10° N
Cosmos 1992 Rocket 4.0 16:34:08 10° NNW 16:39:24 87° ENE 16:44:38 10° SSE
Nadezhda 4 Rocket 4.0 16:36:17 10° S 16:42:33 68° E 16:48:48 10° NNE
Cosmos 1536 2.8 16:39:06 10° N 16:43:06 60° E 16:47:02 10° SSE
Cosmos 2278 Rocket 2.6 16:37:50 10° NNW 16:43:30 71° WSW 16:49:05 10° SSE
Cosmos 2360 Rocket 4.2 16:40:50 10° W 16:44:59 20° NW 16:49:09 10° N
Cosmos 1733 Rocket 3.4 16:42:18 10° NNW 16:46:41 70° W 16:51:03 10° S
Lacrosse 5 rocket 2.3 16:48:04 10° W 16:52:07 39° NNW 16:55:35 12° NE
AQUARIUS 4.1 16:48:58 10° SSE 16:53:26 69° ENE 16:57:54 10° N
SMAP 3.0 16:49:28 10° SSE 16:54:07 78° ENE 16:58:47 10° N
Cosmos 2369 Rocket 3.5 16:50:30 10° N 16:54:30 19° NE 16:57:15 14° ENE
YAOGAN 6 3.7 16:53:00 10° ESE 16:55:51 23° ENE 16:58:45 10° NNE
SL-4 R/B 2.7 16:55:12 10° WNW 16:58:42 36° N 17:01:17 17° NE
SL-16 R/B 2.7 16:54:35 10° S 16:59:50 40° ESE 17:04:31 13° NE
IRS-1C Rocket 4.2 16:54:39 10° SSE 16:59:55 86° WSW 17:05:14 10° NNW
Cosmos 921 Rocket 3.3 16:55:53 10° N 16:59:57 41° ENE 17:04:05 10° SE
Cosmos 1743 3.6 16:56:40 10° NNE 16:59:59 26° ENE 17:03:17 10° SE
Okean 1 4.3 17:00:14 10° SE 17:03:33 26° E 17:05:30 18° NE
Aureole 1 Rocket 2.2 17:00:52 10° S 17:03:48 57° ESE 17:06:12 16° NNE
Cosmos 2026 Rocket 4.2 16:58:33 10° SSE 17:04:14 45° E 17:09:58 10° NNE
FALCON 9 DEB 3.1 17:00:55 10° SW 17:04:25 86° SSE 17:06:35 22° ENE
Cosmos 1867 4.0 17:01:09 10° NNW 17:06:20 41° NE 17:11:28 10° ESE
NOSS 0 Rocket 4.4 17:01:22 10° SW 17:07:31 63° WNW 17:13:45 10° NNE
CORIOLIS 4.2 17:02:38 10° SSE 17:08:05 86° ENE 17:13:34 10° NNW
Cosmos 2237 Rocket 2.5 17:03:06 10° SSW 17:08:48 72° WNW 17:14:30 10° NNE
Cosmos 1812 4.0 17:08:20 10° SSW 17:12:01 42° WNW 17:15:43 10° N
CZ-4 R/B 2.0 17:09:00 10° SE 17:12:23 29° ENE 17:15:45 10° N
Cosmos 2333 Rocket 3.8 17:07:37 10° WSW 17:12:38 30° NW 17:17:43 10° N
ATLAS 5 CENTAUR R/B 0.5 17:10:51 10° SW 17:13:09 78° NW 17:13:53 34° NE
SeaSat 1 4.5 17:16:08 11° NNE 17:16:08 11° NNE 17:16:46 10° NNE
ATLAS 2AS CENTAUR R/B 4.4 17:11:17 10° W 17:18:05 29° NNW 17:24:34 11° NNE
Cosmos 2219 Rocket 3.9 17:14:04 10° WSW 17:18:50 28° NW 17:23:39 10° N
Cosmos 1782 Rocket 3.5 17:15:38 10° N 17:19:56 58° ENE 17:24:12 10° SSE
SKYMED 2 4.0 17:17:34 17° NE 17:20:29 40° E 17:24:33 10° SSE
Cosmos 292 Rocket 4.1 17:15:44 10° NNW 17:20:35 69° WSW 17:25:24 10° S
Cosmos 1943 Rocket 2.8 17:20:05 10° NNW 17:25:11 33° NE 17:27:53 22° E
Abrixas rocket 4.2 17:24:39 10° S 17:26:12 14° SE 17:26:12 14° SE
STARLINK-67 4.3 17:25:44 10° NW 17:27:37 21° N 17:27:37 21° N
ISS -0.4 17:27:02 10° WSW 17:28:20 12° SW 17:29:37 10° SSW
Okean 2 Rocket 3.7 17:24:33 10° N 17:28:38 33° ENE 17:32:44 10° SE
Cosmos 2221 Rocket 4.2 17:26:27 10° SSE 17:30:27 33° E 17:31:08 31° ENE
Sich 1 Rocket 3.5 17:26:19 10° N 17:30:40 57° ENE 17:35:00 10° SSE
Cosmos 1703 Rocket 3.6 17:26:39 10° S 17:31:08 88° W 17:35:39 10° N
Cosmos 1190 Rocket 4.0 17:27:45 10° S 17:32:50 58° ESE 17:36:02 22° NE
STARLINK-52 3.2 17:29:20 10° WSW 17:32:50 73° NNW 17:33:53 42° NE
Cosmos 1975 3.1 17:31:46 10° N 17:35:36 42° ENE 17:39:25 10° SSE
CSL-04 Rocket 3.7 17:32:17 10° SE 17:37:20 49° ENE 17:42:27 10° N
Cosmos 1627 Rocket 4.4 17:31:20 10° S 17:37:27 85° E 17:43:38 10° N
USA 215 3.7 17:36:17 21° NE 17:40:42 55° NNW 17:47:02 10° W
STARLINK-60 3.8 17:37:42 10° W 17:40:57 43° NNW 17:41:33 38° N
STARLINK-29 3.4 17:37:32 10° WSW 17:41:01 60° NNW 17:41:45 47° NNE
Shenzhou-11 Module 4.4 17:39:28 10° WSW 17:41:16 16° SSW 17:42:36 12° S
Lacrosse 5 3.5 17:38:13 10° SSE 17:41:14 18° SE 17:41:14 18° SE
Cosmos 1954 Rocket 4.4 17:38:01 10° S 17:42:48 40° ESE 17:43:50 36° ENE
STARLINK-43 3.8 17:40:49 10° SSW 17:44:19 43° SE 17:44:32 42° SE
Cosmos 1441 Rocket 3.8 17:40:53 10° NNW 17:44:37 56° W 17:48:17 10° S
Cosmos 1655 Rocket 4.2 17:42:02 10° SSE 17:48:02 48° E 17:53:06 15° NNE
Cosmos 614 Rocket 3.9 17:43:27 10° SSW 17:48:33 87° WNW 17:51:50 22° NNE
Cosmos 2297 4.0 17:44:11 10° NNW 17:49:51 67° WSW 17:55:26 10° SSE
NOAA 15 4.5 17:45:37 10° SSE 17:50:49 70° ENE 17:56:04 10° N
USA 116 4.4 17:51:38 26° NNE 17:54:33 60° E 17:59:28 10° S
Cosmos 1174 4.3 17:50:53 10° SW 17:55:48 65° NW 17:57:13 39° NNE
CSL-04 Debris 4.0 17:50:59 10° SSE 17:56:24 73° ENE 18:01:50 10° N
Okean-O 4.1 17:59:03 10° SSW 18:03:10 38° W 18:07:20 10° NNW
Envisat 4.2 18:03:45 10° S 18:08:33 43° W 18:13:24 10° NNW
COSMO-SKYMED 1 2.9 18:06:07 25° N 18:08:33 65° WNW 18:12:51 10° SSW
BREEZE-M R/B 3.1 18:04:46 10° WNW 18:08:35 53° NW 18:08:35 53° NW
Okean 1-7 4.3 18:05:42 10° SSW 18:09:49 41° WNW 18:13:53 11° N
Cosmos 1140 Rocket 3.4 18:05:16 10° SSW 18:10:24 85° WNW 18:12:14 41° NNE
Meteor 2-13 Rocket 4.3 18:04:32 10° S 18:10:32 69° E 18:14:11 25° NNE
YAOGAN 1 2.6 18:09:22 10° S 18:13:41 76° WSW 18:18:02 10° NNW
USA 267 4.4 18:09:22 10° SSE 18:15:28 41° SW 18:21:36 10° WNW
Meteor 2-9 Rocket 4.2 18:11:41 10° NNW 18:17:36 87° W 18:23:22 10° S
NOSS 3-1 (C) 4.1 18:11:29 10° NW 18:18:45 58° NE 18:20:52 46° E
Cosmos 407 Rocket 4.2 18:14:16 10° SW 18:19:19 52° WNW 18:22:13 25° N
NOAA 11 4.1 18:15:47 10° SSE 18:21:15 89° ENE 18:26:47 10° NNW
S3M 3.9 18:19:35 10° N 18:25:50 85° W 18:31:58 10° S
Cosmos 1943 4.3 18:21:18 10° S 18:24:15 29° SSE 18:24:15 29° SSE
BREEZE-M DEB (TANK) 4.3 18:25:28 10° W 18:27:35 18° SW 18:27:35 18° SW
USA 229 DEB 3.8 18:21:23 10° NW 18:28:34 64° NE 18:29:44 57° E
USA 229 3.8 18:21:30 10° NW 18:28:40 64° NE 18:29:46 57° E
CZ-4C R/B 3.3 18:25:45 10° S 18:28:05 26° S 18:28:05 26° S
Lacrosse 5 rocket 3.6 18:29:15 10° NW 18:31:14 17° NNW 18:31:14 17° NNW
Cosmos 2266 Rocket 3.9 18:27:01 10° S 18:33:24 72° E 18:33:58 68° ENE
NOSS 3-1 (A) 4.1 18:26:48 10° NNW 18:33:57 51° NE 18:34:15 51° NE
SL-4 R/B 3.8 18:35:03 10° WNW 18:36:52 25° NW 18:36:52 25° NW
Cosmos 2369 Rocket 2.1 18:33:38 10° NNW 18:39:07 84° NW 18:39:07 84° NW
SL-16 R/B 3.5 18:38:46 10° WSW 18:43:59 36° NW 18:46:25 26° N
CZ-4 R/B 3.6 18:44:17 10° SSW 18:47:26 23° W 18:50:33 10° NW
Cosmos 1603 4.1 18:44:57 10° SSW 18:49:20 55° SSW 18:49:20 55° SSW
CZ-3B R/B 4.4 18:55:06 10° S 18:56:21 12° S 18:56:21 12° S
Meteor 2-4 Rocket 4.3 19:01:04 10° SSW 19:06:50 55° WNW 19:06:55 55° WNW
Cosmos 1943 Rocket 3.1 19:03:44 10° NW 19:09:03 44° WSW 19:09:31 43° WSW
Cosmos 2344 4.3 19:09:52 10° NW 19:19:37 87° NE 19:22:29 60° SE
USA 215 4.3 19:23:38 34° NNW 19:23:38 34° NNW 19:28:45 10° WNW
Lacrosse 5 4.1 19:18:55 10° SW 19:20:27 20° SW 19:20:27 20° SW
